DW8492 Weather Reports


Display with metric or nautical units.
time (UTC)temp
F
wind
direction
speed
MPH
gust
MPH
rain 1hr
in
rain 24hr
in
rain mn
in
humidity
%
barometer
mb
20260508093032 43 227 0.0 0.0 0.00 0.00 0.00 82 1012.8
20260508091557 43 227 0.0 0.0 0.00 0.00 0.00 82 1012.7
20260508090020 43 227 0.0 0.0 0.00 0.00 0.00 81 1012.8
20260508084552 43 223 0.0 0.0 0.00 0.00 0.00 81 1012.9
20260508083014 43 223 0.0 0.0 0.00 0.00 0.00 80 1012.8
20260508081602 43 223 0.0 2.0 0.00 0.00 0.00 79 1012.8
20260508080026 43 221 0.0 4.0 0.00 0.00 0.00 79 1012.8
20260508074600 42 313 0.0 2.0 0.00 0.00 0.00 82 1012.7
20260508073023 41 339 0.0 0.0 0.00 0.00 0.00 85 1012.6
20260508071611 41 339 0.0 0.0 0.00 0.00 0.00 87 1012.5
20260508070037 40 339 0.0 0.0 0.00 0.00 0.00 89 1012.8
20260508064611 40 339 0.0 0.0 0.00 0.00 0.00 91 1012.7
20260508063035 38 340 0.0 0.0 0.00 0.00 0.00 92 1013.1
20260508061520 37 340 0.0 0.0 0.00 0.00 0.00 91 1013.1
20260508060042 37 340 0.0 0.0 0.00 0.00 0.00 90 1013.1
20260508054513 37 340 0.0 0.0 0.00 0.00 0.00 90 1013.0
20260508053108 36 340 0.0 0.0 0.00 0.00 0.00 89 1013.2
20260508051523 36 340 0.0 0.0 0.00 0.00 0.00 89 1013.4
20260508050108 36 340 0.0 0.0 0.00 0.00 0.00 88 1013.4
20260508044536 36 340 0.0 0.0 0.00 0.00 0.00 87 1013.4
20260508043113 36 340 0.0 0.0 0.00 0.00 0.00 86 1013.2
20260508041545 37 340 0.0 0.0 0.00 0.00 0.00 85 1013.2
20260508040109 38 340 0.0 0.0 0.00 0.00 0.00 84 1013.1
20260508034534 38 340 0.0 0.0 0.00 0.00 0.00 82 1013.0
20260508033014 39 340 0.0 0.0 0.00 0.00 0.00 79 1013.0
20260508031549 40 340 0.0 0.0 0.00 0.00 0.00 77 1013.1
20260508030010 41 340 0.0 0.0 0.00 0.00 0.00 74 1013.1
20260508024549 43 340 0.0 0.0 0.00 0.00 0.00 70 1013.1
20260508021611 46 340 0.0 0.0 0.00 0.00 0.00 65 1012.9
20260508020004 47 340 0.0 0.0 0.00 0.00 0.00 63 1012.8
20260508014538 48 339 0.0 1.0 0.00 0.00 0.00 61 1012.6
20260508013110 49 338 0.0 1.0 0.00 0.00 0.00 61 1012.5
20260508011528 49 5 1.0 3.0 0.00 0.00 0.00 60 1012.3
20260508010106 50 30 0.0 2.0 0.00 0.00 0.00 59 1012.1
20260508004528 51 346 1.0 5.0 0.00 0.00 0.00 56 1011.9
20260508003110 52 351 2.0 6.0 0.00 0.00 0.00 54 1011.6
20260508001601 52 360 0.0 5.0 0.00 0.00 0.00 51 1011.4
20260508000107 53 174 2.0 7.0 0.00 0.00 0.00 48 1011.2
20260507234534 54 317 1.0 9.0 0.00 0.00 0.00 45 1011.0
20260507233108 55 15 1.0 7.0 0.00 0.00 0.00 44 1010.8
20260507231537 55 326 2.0 8.0 0.00 0.00 0.00 44 1010.7
20260507230109 56 318 2.0 11.0 0.00 0.00 0.00 42 1010.5
20260507224542 57 232 2.0 7.0 0.00 0.00 0.00 44 1010.4
20260507223002 57 221 3.0 9.0 0.00 0.00 0.00 41 1010.3
20260507221538 59 344 2.0 9.0 0.00 0.00 0.00 40 1010.2
20260507220101 59 321 3.0 8.0 0.00 0.00 0.00 39 1009.9
20260507214537 60 341 2.0 8.0 0.00 0.00 0.00 39 1009.8
20260507213001 60 142 4.0 7.0 0.00 0.00 0.00 37 1009.5
20260507211536 58 204 2.0 12.0 0.00 0.00 0.00 41 1009.8
20260507210111 59 351 4.0 10.0 0.00 0.00 0.00 38 1009.6
20260507204536 59 155 4.0 8.0 0.00 0.00 0.00 40 1009.7
20260507203011 58 244 3.0 11.0 0.00 0.00 0.00 47 1009.6
20260507201508 58 240 2.0 11.0 0.00 0.00 0.00 41 1009.7
20260507200047 60 259 3.0 8.0 0.00 0.00 0.00 40 1009.8
20260507194518 60 9 3.0 11.0 0.00 0.00 0.00 41 1009.9
20260507193100 60 223 2.0 7.0 0.00 0.00 0.00 39 1010.0
20260507191515 59 216 3.0 10.0 0.00 0.00 0.00 43 1010.0
20260507190052 58 297 2.0 9.0 0.00 0.00 0.00 44 1010.0
20260507184504 59 19 2.0 8.0 0.00 0.00 0.00 43 1010.2
20260507183039 59 11 4.0 12.0 0.00 0.00 0.00 44 1010.2
20260507181615 58 42 4.0 7.0 0.00 0.00 0.00 44 1010.3
20260507180037 58 234 3.0 9.0 0.00 0.00 0.00 48 1010.5
20260507174610 57 223 1.0 8.0 0.00 0.00 0.00 48 1010.6
20260507173033 57 249 3.0 8.0 0.00 0.00 0.00 48 1010.8
20260507171603 57 186 2.0 6.0 0.00 0.00 0.00 53 1011.0
20260507170033 55 11 2.0 7.0 0.00 0.00 0.00 53 1011.1
20260507164558 55 309 3.0 7.0 0.00 0.00 0.00 52 1011.2
20260507163020 56 167 1.0 5.0 0.00 0.00 0.00 51 1011.3
20260507161558 56 275 1.0 5.0 0.00 0.00 0.00 51 1011.3
20260507160020 56 5 2.0 7.0 0.00 0.00 0.00 51 1011.5
20260507154528 55 223 2.0 6.0 0.00 0.00 0.00 50 1011.7
20260507153104 56 10 3.0 7.0 0.00 0.00 0.00 52 1011.8
20260507151527 55 206 2.0 7.0 0.00 0.00 0.00 53 1012.0
20260507150059 55 214 3.0 7.0 0.00 0.00 0.00 53 1012.2
20260507144629 55 166 2.0 9.0 0.00 0.00 0.00 56 1012.3
20260507143106 54 5 2.0 7.0 0.00 0.00 0.00 58 1012.4
20260507141524 53 253 2.0 6.0 0.00 0.00 0.00 63 1012.7
20260507140105 51 249 1.0 5.0 0.00 0.00 0.00 67 1012.9
20260507134527 50 228 2.0 8.0 0.00 0.02 0.00 68 1013.1
20260507133109 50 245 3.0 6.0 0.00 0.02 0.00 71 1013.1
20260507131533 48 223 3.0 7.0 0.00 0.02 0.00 75 1013.2
20260507130003 46 273 0.0 3.0 0.00 0.02 0.00 84 1013.1
20260507124535 44 243 2.0 4.0 0.00 0.04 0.00 92 1013.2
20260507123002 42 234 0.0 4.0 0.00 0.04 0.00 95 1013.1
20260507121533 40 11 0.0 0.0 0.00 0.04 0.00 96 1013.3
20260507120017 37 13 0.0 0.0 0.00 0.04 0.00 95 1013.3
20260507114653 36 13 0.0 0.0 0.00 0.05 0.00 95 1013.4
20260507113100 34 13 0.0 0.0 0.00 0.05 0.00 95 1013.3
20260507111521 33 13 0.0 0.0 0.00 0.05 0.00 94 1013.1
20260507110110 32 13 0.0 0.0 0.00 0.05 0.00 94 1013.0
20260507104523 32 13 0.0 0.0 0.00 0.20 0.00 93 1012.8
20260507103056 32 13 0.0 0.0 0.00 0.20 0.00 93 1012.7
20260507101627 32 13 0.0 0.0 0.00 0.20 0.00 93 1012.6
20260507100049 32 13 0.0 0.0 0.00 0.20 0.00 93 1012.7
20260507094506 33 14 0.0 0.0 0.00 0.28 0.00 93 1012.6
20260507093151 33 13 0.0 0.0 0.00 0.28 0.00 92 1012.5